Weather History for CWRU - January, 2013

Change the Weather History Date:

Sunday, January 20, 2013

  Actual Average Record
Temperature  
Mean Temperature 44 °F -  
Max Temperature 47 °F - - ()
Min Temperature 41 °F - - ()
Degree Days  
Heating Degree Days 21    
Moisture  
Dew Point 40 °F    
Average Humidity 85    
Maximum Humidity 93    
Minimum Humidity 73    
Precipitation  
Precipitation 0.00 in - - ()
Sea Level Pressure  
Sea Level Pressure 30.31 in    
Wind  
Wind Speed 15 mph ()    
Max Wind Speed 26 mph    
Max Gust Speed 30 mph    
T = Trace of Precipitation, MM = Missing Value Source: Averaged Metar Reports

Daily Weather History Graph

Daily Weather History Graph

Search for Another Location

Airport or City:

Trip Planner

Search our weather history database for the weather conditions in past years. The results will help you decide how hot, cold, wet, or windy it might be!

Date:

Astronomy

Jan. 20, 2013 Rise Set
Actual Time 8:19 AM PST 5:06 PM PST
Civil Twilight 7:43 AM PST 5:42 PM PST
Nautical Twilight 7:03 AM PST 6:22 PM PST
Astronomical Twilight 6:25 AM PST 7:01 PM PST
Moon 12:12 PM PST (1/20) 2:55 AM PST (1/20)
Length of Visible Light 9h 59m
Length of Day
8h 46m
Waxing Gibbous, 67% of the Moon is Illuminated
Jan 20
Waxing Gibbous
Jan 26
Full
Feb 3
Last Quarter
Feb 9
New
Feb 17
First Quarter

Hourly Weather History & Observations

Time (PST) Temp. Windchill Dew Point Humidity Pressure Visibility Wind Dir Wind Speed Gust Speed Precip Events Conditions
12:00 AM 42.8 °F 35.8 °F 40.8 °F 93% 30.32 in - ESE 13.8 mph - N/A   Unknown
1:00 AM 43.3 °F 35.0 °F 40.5 °F 90% 30.32 in - ESE 19.6 mph - N/A   Unknown
2:00 AM 43.5 °F 35.8 °F 41.2 °F 91% 30.33 in - ESE 17.3 mph - N/A   Unknown
3:00 AM 43.0 °F 34.5 °F 40.8 °F 92% 30.33 in - East 19.6 mph - N/A   Unknown
4:00 AM 44 °F - 40 °F 79% 30.32 in - ESE 23.0 mph - -  
4:00 AM 43.9 °F 35.0 °F 39.7 °F 85% 30.32 in - ESE 23.0 mph - N/A   Unknown
5:00 AM 43.7 °F 35.0 °F 38.7 °F 82% 30.32 in - ESE 21.9 mph - N/A   Unknown
6:00 AM 43.2 °F 34.5 °F 39.0 °F 85% 30.33 in - ESE 20.7 mph 26.5 mph N/A   Unknown
7:00 AM 43.0 °F 33.1 °F 38.8 °F 85% 30.31 in - ESE 26.5 mph - N/A   Unknown
8:00 AM 43.5 °F 34.5 °F 39.2 °F 85% 30.31 in - ESE 23.0 mph 29.9 mph N/A   Unknown
9:00 AM 43.7 °F 35.0 °F 39.2 °F 84% 30.32 in - ESE 21.9 mph 28.8 mph N/A   Unknown
10:00 AM 45 °F - 40 °F 76% 30.33 in - East 21.9 mph - -  
10:00 AM 44.8 °F 36.4 °F 39.9 °F 83% 30.33 in - East 21.9 mph - N/A   Unknown
11:00 AM 44.8 °F 36.9 °F 39.6 °F 82% 30.35 in - ESE 19.6 mph - N/A   Unknown
12:00 PM 44.8 °F 36.9 °F 39.6 °F 82% 30.34 in - ESE 19.6 mph - N/A   Unknown
1:00 PM 45.3 °F 39.0 °F 39.9 °F 81% 30.34 in - ESE 13.8 mph 20.7 mph N/A   Unknown
2:00 PM 44.8 °F 38.7 °F 39.9 °F 83% 30.32 in - ESE 12.7 mph - N/A   Unknown
3:00 PM 46.6 °F - 41.2 °F 81% 30.31 in - ESE 6.9 mph - N/A   Unknown
4:00 PM 47 °F - 41 °F 73% 30.31 in - SE 3.5 mph - -  
4:00 PM 46.8 °F - 41.0 °F 80% 30.31 in - SE 3.5 mph - N/A   Unknown
5:00 PM 43.9 °F - 39.9 °F 86% 30.30 in - SE 2.3 mph - N/A   Unknown
6:00 PM 42.4 °F - 39.0 °F 88% 30.29 in - Calm Calm - N/A   Unknown
7:00 PM 42.1 °F 36.1 °F 39.6 °F 91% 30.28 in - North 10.4 mph - N/A   Unknown
8:00 PM 42.1 °F 35.2 °F 39.7 °F 91% 30.27 in - NNE 12.7 mph - N/A   Unknown
9:00 PM 41.4 °F 35.7 °F 39.2 °F 92% 30.27 in - North 9.2 mph - N/A   Unknown
10:00 PM 41 °F - 39 °F 90% 30.25 in - NNE 15.0 mph - -  
10:00 PM 41.0 °F 33.1 °F 39.0 °F 93% 30.25 in - NNE 15.0 mph - N/A   Unknown
11:00 PM 41.9 °F - 39.4 °F 91% 30.26 in - ESE 2.3 mph - N/A   Unknown